Location: Unspecified
(0.0000°N, 0.0000°E)
Time: 10:34:55
(UTC+00:00)

N. Korean satellite - Pass Details

Date: 13 February 2018
Orbit: 459 x 514 km, 97.2° (Epoch: 21 February)

Event Time Altitude Azimuth Distance (km) Brightness Sun altitude
Rises 05:33:20 0° 40° (NE) 2,575 10.6 -9.9°
Reaches altitude 10° 05:36:00 10° 61° (ENE) 1,706 10.1 -9.3°
Maximum altitude 05:38:21 16° 102° (ESE) 1,365 10.3 -8.7°
Drops below altitude 10° 05:40:44 10° 142° (SE) 1,726 10.2 -8.1°
Sets 05:43:26 0° 163° (SSE) 2,620 10.7 -7.5°
